Flag for U.S.A. Weather past 2 weeks in Palestine, Texas, U.S.A.

Now
59 °F

Clear.


Feels Like: 59 °F
Forecast: 60 / 85 °F
Wind: 5 mph from Southeast

Location: Palestine Municipal Airport


UV Index: 7 (High)

Visibility: 10 mi


Pressure: 29.97 "Hg

Humidity: 85%

Dew point: 54 °F

Location of PalestineLocation

Historic Weather in Palestine

°F

Palestine temperature yesterday

Maximum temperature yesterday: 82 °F (at 5:55 PM)
Minimum temperature yesterday: 56 °F (at 6:55 AM)
Average temperature yesterday: 68 °F

Past Weeks' High & Low Weather Summary

 TemperatureHumidityPressure
High82 °F (Apr 10, 4:15 PM)92% (Apr 15, 7:35 AM)30.35 "Hg (Apr 15, 7:35 AM)
Low32 °F (Apr 15, 7:15 AM)21% (Apr 8, 5:55 PM)29.69 "Hg (Apr 13, 5:35 PM)
Average64 °F64%30.08 "Hg
* Reported Apr 8 6:15 AM — Apr 23 6:15 AM, Palestine, Weather by CustomWeather, © 2014

Note: Actual official high and low records may vary slightly from our data, if they occured in-between our weather recording intervals... More about our weather records

Advertising

Historic Weather Conditions — Data for Previous 24 hours

 ConditionsComfort  
Time TempWeatherWind HumidityBarometerVisibility
6:15 AM
Apr 23
57 °FClear.3 mph89%29.95 "Hg7 mi
5:55 AM59 °FClear.No wind85%29.95 "Hg10 mi
5:35 AM60 °FClear.3 mph85%29.95 "Hg10 mi
5:15 AM58 °FClear.No wind87%29.95 "Hg10 mi
4:55 AM62 °FClear.No wind82%29.95 "Hg10 mi
4:35 AM59 °FClear.No wind87%29.95 "Hg10 mi
4:15 AM59 °FClear.3 mph86%29.95 "Hg10 mi
3:55 AM59 °FClear.No wind88%29.95 "Hg10 mi
3:35 AM58 °FClear.No wind89%29.95 "Hg10 mi
3:15 AM57 °FClear.No wind89%29.95 "Hg10 mi
2:55 AM57 °FClear.No wind89%29.95 "Hg7 mi
2:35 AM59 °FClear.No wind88%29.96 "Hg10 mi
2:15 AM59 °FClear.No wind88%29.96 "Hg10 mi
1:55 AM59 °FClear.No wind87%29.97 "Hg10 mi
1:35 AM60 °FClear.No wind89%29.97 "Hg10 mi
1:15 AM60 °FClear.No wind88%29.97 "Hg10 mi
12:55 AM60 °FClear.No wind86%29.97 "Hg10 mi
12:35 AM60 °FClear.No wind88%29.97 "Hg10 mi
12:15 AM61 °FClear.No wind88%29.98 "Hg10 mi
11:55 PM
Apr 22
61 °FClear.No wind87%29.98 "Hg10 mi
11:15 PM64 °FClear.No wind85%29.98 "Hg10 mi
10:55 PM63 °FClear.No wind84%29.97 "Hg10 mi
10:15 PM65 °FClear.No wind78%29.97 "Hg10 mi
9:55 PM67 °FClear.No wind77%29.96 "Hg10 mi
9:35 PM67 °FClear.No wind78%29.96 "Hg10 mi
9:15 PM67 °FClear.No wind81%29.95 "Hg10 mi
8:55 PM68 °FSunny.No wind80%29.95 "Hg10 mi
8:35 PM70 °FSunny.No wind75%29.95 "Hg10 mi
8:15 PM72 °FSunny.No wind66%29.94 "Hg10 mi
7:55 PM76 °FSunny.No wind55%29.94 "Hg10 mi
7:15 PM80 °FSunny.No wind45%29.94 "Hg10 mi
6:55 PM80 °FSunny.3 mph42%29.94 "Hg10 mi
6:15 PM81 °FSunny.5 mph39%29.94 "Hg10 mi
5:55 PM82 °FSunny.5 mph40%29.95 "Hg10 mi
5:35 PM81 °FScattered clouds.5 mph40%29.95 "Hg10 mi
5:15 PM81 °FSunny.3 mph41%29.96 "Hg10 mi
4:55 PM81 °FSunny.7 mph42%29.97 "Hg10 mi
4:15 PM81 °FScattered clouds.5 mph43%29.98 "Hg10 mi
3:55 PM80 °FScattered clouds.No wind43%29.98 "Hg10 mi
3:35 PM79 °FPartly sunny.No wind44%29.99 "Hg10 mi
3:15 PM80 °FPartly sunny.6 mph46%30.00 "Hg10 mi
2:55 PM78 °FScattered clouds.5 mph47%30.01 "Hg10 mi
2:35 PM78 °FScattered clouds.No wind49%30.02 "Hg10 mi
2:15 PM77 °FScattered clouds.6 mph51%30.02 "Hg10 mi
1:55 PM75 °FScattered clouds.3 mph53%30.03 "Hg10 mi
1:35 PM76 °FScattered clouds.7 mph52%30.03 "Hg10 mi
1:15 PM76 °FScattered clouds.7 mph53%30.04 "Hg10 mi
12:55 PM75 °FScattered clouds.3 mph55%30.04 "Hg10 mi
12:35 PM74 °FScattered clouds.10 mph56%30.05 "Hg10 mi
12:15 PM74 °FScattered clouds.7 mph59%30.06 "Hg10 mi
11:55 AM72 °FScattered clouds.5 mph61%30.07 "Hg10 mi
11:35 AM73 °FScattered clouds.10 mph62%30.07 "Hg10 mi
11:15 AM71 °FScattered clouds.7 mph64%30.07 "Hg10 mi
10:55 AM69 °FScattered clouds.9 mph69%30.07 "Hg10 mi
10:15 AM69 °FSunny.9 mph70%30.07 "Hg10 mi
9:55 AM68 °FSunny.10 mph74%30.06 "Hg10 mi
9:35 AM67 °FSunny.8 mph76%30.06 "Hg10 mi
9:15 AM64 °FSunny.6 mph89%30.05 "Hg10 mi
8:55 AM63 °FSunny.5 mph92%30.05 "Hg10 mi
8:35 AM62 °FSunny.6 mph92%30.05 "Hg10 mi
8:15 AM61 °FSunny.5 mph92%30.04 "Hg10 mi
7:55 AM59 °FFog.3 mph92%30.04 "Hg2 mi
7:35 AM57 °FFog.No wind92%30.04 "Hg0 mi
7:15 AM57 °FFog.No wind92%30.04 "Hg0 mi
Weather by CustomWeather, © 2014

See weather overview